Time,TemperatureF,DewpointF,PressureIn,WindDirection,WindDirectionDegrees,WindSpeedMPH,WindSpeedGustMPH,Humidity,HourlyPrecipIn,Conditions,Clouds,dailyrainin,SoftwareType,DateUTC
2013-04-07 00:03:00,58.0,58.0,30.25,North,360,6.0,-999.0,100,-99.99,,,-99.99,,2013-04-07 04:03:00,
2013-04-07 00:14:00,58.0,58.0,30.25,North,360,6.0,-999.0,100,-99.99,,,-99.99,,2013-04-07 04:14:00,
2013-04-07 00:23:00,58.0,58.0,30.25,SW,219,6.0,-999.0,100,-99.99,,,-99.99,,2013-04-07 04:23:00,
2013-04-07 00:32:00,58.0,58.0,30.25,WSW,240,6.0,-999.0,100,-99.99,,,-99.99,,2013-04-07 04:32:00,
2013-04-07 00:43:00,58.0,58.0,30.25,WSW,240,6.0,-999.0,100,-99.99,,,-99.99,,2013-04-07 04:43:00,
2013-04-07 00:53:00,58.0,58.0,30.25,SW,227,5.0,-999.0,100,-99.99,,,-99.99,,2013-04-07 04:53:00,
2013-04-07 01:02:00,58.0,58.0,30.24,SW,230,4.0,-999.0,100,-99.99,,,-99.99,,2013-04-07 05:02:00,
2013-04-07 01:12:00,58.0,58.0,30.24,SW,230,4.0,-999.0,100,-99.99,,,-99.99,,2013-04-07 05:12:00,
2013-04-07 01:23:00,57.0,57.0,30.24,WSW,241,4.0,-999.0,100,-99.99,,,-99.99,,2013-04-07 05:23:00,
2013-04-07 01:33:00,57.0,57.0,30.23,WSW,240,2.0,-999.0,100,-99.99,,,-99.99,,2013-04-07 05:33:00,
2013-04-07 01:43:00,57.0,57.0,30.23,WSW,240,2.0,-999.0,100,-99.99,,,-99.99,,2013-04-07 05:43:00,
2013-04-07 01:52:00,57.0,57.0,30.23,SW,216,3.0,-999.0,100,-99.99,,,-99.99,,2013-04-07 05:52:00,
2013-04-07 02:02:00,57.0,57.0,30.22,SW,236,4.0,-999.0,100,-99.99,,,-99.99,,2013-04-07 06:02:00,
2013-04-07 02:12:00,57.0,57.0,30.22,SW,236,4.0,-999.0,100,-99.99,,,-99.99,,2013-04-07 06:12:00,
2013-04-07 02:22:00,57.0,57.0,30.22,SW,236,4.0,-999.0,100,-99.99,,,-99.99,,2013-04-07 06:22:00,
2013-04-07 02:32:00,57.0,57.0,30.22,SW,236,4.0,-999.0,100,-99.99,,,-99.99,,2013-04-07 06:32:00,
2013-04-07 02:43:00,57.0,57.0,30.22,SW,236,4.0,-999.0,100,-99.99,,,-99.99,,2013-04-07 06:43:00,
2013-04-07 04:23:00,56.0,56.0,30.20,South,187,1.0,-999.0,100,-99.99,,,-99.99,,2013-04-07 08:23:00,
2013-04-07 04:33:00,56.0,56.0,30.20,South,187,1.0,-999.0,100,-99.99,,,-99.99,,2013-04-07 08:33:00,
2013-04-07 04:43:00,56.0,56.0,30.20,South,187,1.0,-999.0,100,-99.99,,,-99.99,,2013-04-07 08:43:00,
2013-04-07 04:53:00,56.0,56.0,30.20,South,187,1.0,-999.0,100,-99.99,,,-99.99,,2013-04-07 08:53:00,
2013-04-07 05:02:00,56.0,56.0,30.21,South,184,0.0,-999.0,100,-99.99,,,-99.99,,2013-04-07 09:02:00,
2013-04-07 05:13:00,56.0,56.0,30.21,South,184,0.0,-999.0,100,-99.99,,,-99.99,,2013-04-07 09:13:00,
2013-04-07 05:23:00,56.0,56.0,30.21,South,184,2.0,-999.0,100,-99.99,,,-99.99,,2013-04-07 09:23:00,
2013-04-07 05:33:00,57.0,57.0,30.21,SSW,207,2.0,-999.0,100,-99.99,,,-99.99,,2013-04-07 09:33:00,
2013-04-07 05:43:00,57.0,57.0,30.21,SSW,207,2.0,-999.0,100,-99.99,,,-99.99,,2013-04-07 09:43:00,
2013-04-07 05:54:00,57.0,57.0,30.20,South,174,2.0,-999.0,100,-99.99,,,-99.99,,2013-04-07 09:54:00,
2013-04-07 06:04:00,57.0,57.0,30.21,SW,232,2.0,-999.0,100,-99.99,,,-99.99,,2013-04-07 10:04:00,
2013-04-07 06:14:00,57.0,57.0,30.21,SW,232,2.0,-999.0,100,-99.99,,,-99.99,,2013-04-07 10:14:00,
2013-04-07 06:23:00,57.0,57.0,30.21,SW,216,1.0,-999.0,100,-99.99,,,-99.99,,2013-04-07 10:23:00,
2013-04-07 06:33:00,57.0,57.0,30.22,SSW,192,1.0,-999.0,100,-99.99,,,-99.99,,2013-04-07 10:33:00,
2013-04-07 06:43:00,57.0,57.0,30.22,SSW,192,1.0,-999.0,100,-99.99,,,-99.99,,2013-04-07 10:43:00,
2013-04-07 06:54:00,57.0,57.0,30.22,WSW,243,2.0,-999.0,100,-99.99,,,-99.99,,2013-04-07 10:54:00,
2013-04-07 07:03:00,57.0,57.0,30.22,SW,234,3.0,-999.0,100,-99.99,,,-99.99,,2013-04-07 11:03:00,
2013-04-07 07:12:00,57.0,57.0,30.22,SW,234,3.0,-999.0,100,-99.99,,,-99.99,,2013-04-07 11:12:00,
2013-04-07 07:23:00,57.0,57.0,30.23,SSW,209,3.0,-999.0,100,-99.99,,,-99.99,,2013-04-07 11:23:00,
2013-04-07 07:33:00,57.0,57.0,30.23,SSW,205,2.0,-999.0,100,-99.99,,,-99.99,,2013-04-07 11:33:00,
2013-04-07 07:43:00,57.0,57.0,30.23,SSW,205,2.0,-999.0,100,-99.99,,,-99.99,,2013-04-07 11:43:00,
2013-04-07 07:53:00,58.0,58.0,30.24,South,186,3.0,-999.0,100,-99.99,,,-99.99,,2013-04-07 11:53:00,
2013-04-07 08:03:00,59.0,59.0,30.24,SSW,198,2.0,-999.0,100,-99.99,,,-99.99,,2013-04-07 12:03:00,
2013-04-07 08:12:00,59.0,59.0,30.24,SSW,198,2.0,-999.0,100,-99.99,,,-99.99,,2013-04-07 12:12:00,
2013-04-07 08:23:00,59.0,59.0,30.25,SW,234,2.0,-999.0,100,-99.99,,,-99.99,,2013-04-07 12:23:00,
2013-04-07 08:34:00,60.0,60.0,30.25,South,189,3.0,-999.0,100,-99.99,,,-99.99,,2013-04-07 12:34:00,
2013-04-07 08:43:00,60.0,60.0,30.25,South,189,3.0,-999.0,100,-99.99,,,-99.99,,2013-04-07 12:43:00,
2013-04-07 08:54:00,61.0,61.0,30.26,WSW,246,3.0,-999.0,100,-99.99,,,-99.99,,2013-04-07 12:54:00,
2013-04-07 09:04:00,61.0,61.0,30.26,WSW,242,4.0,-999.0,100,-99.99,,,-99.99,,2013-04-07 13:04:00,
2013-04-07 09:13:00,61.0,61.0,30.26,WSW,242,4.0,-999.0,100,-99.99,,,-99.99,,2013-04-07 13:13:00,
2013-04-07 09:23:00,61.0,61.0,30.26,SSW,192,5.0,-999.0,100,-99.99,,,-99.99,,2013-04-07 13:23:00,
2013-04-07 09:33:00,62.0,62.0,30.26,SSW,199,6.0,-999.0,100,-99.99,,,-99.99,,2013-04-07 13:33:00,
2013-04-07 09:42:00,62.0,62.0,30.26,SSW,199,6.0,-999.0,100,-99.99,,,-99.99,,2013-04-07 13:42:00,
2013-04-07 09:53:00,62.0,62.0,30.26,SW,223,6.0,-999.0,100,-99.99,,,-99.99,,2013-04-07 13:53:00,
2013-04-07 10:02:00,62.0,62.0,30.27,SW,227,7.0,-999.0,100,-99.99,,,-99.99,,2013-04-07 14:02:00,
2013-04-07 10:12:00,62.0,62.0,30.27,SW,227,7.0,-999.0,100,-99.99,,,-99.99,,2013-04-07 14:12:00,
2013-04-07 10:23:00,62.0,62.0,30.27,SW,227,7.0,-999.0,100,-99.99,,,-99.99,,2013-04-07 14:23:00,
2013-04-07 10:33:00,62.0,62.0,30.27,WSW,237,5.0,-999.0,100,-99.99,,,-99.99,,2013-04-07 14:33:00,
2013-04-07 10:44:00,62.0,62.0,30.27,WSW,237,5.0,-999.0,100,-99.99,,,-99.99,,2013-04-07 14:44:00,
2013-04-07 10:53:00,62.0,62.0,30.27,WSW,237,5.0,-999.0,100,-99.99,,,-99.99,,2013-04-07 14:53:00,
2013-04-07 11:03:00,62.0,62.0,30.27,WSW,237,7.0,-999.0,100,-99.99,,,-99.99,,2013-04-07 15:03:00,
2013-04-07 11:13:00,63.0,63.0,30.28,SW,236,6.0,-999.0,100,-99.99,,,-99.99,,2013-04-07 15:13:00,
2013-04-07 11:22:00,63.0,63.0,30.28,SW,236,6.0,-999.0,100,-99.99,,,-99.99,,2013-04-07 15:22:00,
2013-04-07 11:35:00,63.0,63.0,30.28,WNW,290,7.0,-999.0,100,-99.99,,,-99.99,,2013-04-07 15:35:00,
2013-04-07 11:45:00,63.0,63.0,30.28,WNW,290,7.0,-999.0,100,-99.99,,,-99.99,,2013-04-07 15:45:00,
2013-04-07 11:53:00,64.0,64.0,30.28,SW,223,6.0,-999.0,100,-99.99,,,-99.99,,2013-04-07 15:53:00,
2013-04-07 12:05:00,64.0,64.0,30.28,SW,215,5.0,-999.0,100,-99.99,,,-99.99,,2013-04-07 16:05:00,
2013-04-07 12:14:00,64.0,64.0,30.28,SW,215,5.0,-999.0,100,-99.99,,,-99.99,,2013-04-07 16:14:00,
2013-04-07 12:25:00,64.0,64.0,30.27,WSW,250,7.0,-999.0,100,-99.99,,,-99.99,,2013-04-07 16:25:00,
2013-04-07 12:34:00,63.0,63.0,30.27,SSW,203,8.0,-999.0,100,-99.99,,,-99.99,,2013-04-07 16:34:00,
2013-04-07 12:43:00,63.0,63.0,30.27,SSW,203,8.0,-999.0,100,-99.99,,,-99.99,,2013-04-07 16:43:00,
2013-04-07 12:53:00,63.0,63.0,30.27,SW,221,8.0,-999.0,100,-99.99,,,-99.99,,2013-04-07 16:53:00,
2013-04-07 13:05:00,64.0,64.0,30.27,SW,227,7.0,-999.0,100,-99.99,,,-99.99,,2013-04-07 17:05:00,
2013-04-07 13:13:00,64.0,64.0,30.27,SW,227,7.0,-999.0,100,-99.99,,,-99.99,,2013-04-07 17:13:00,
2013-04-07 13:23:00,67.0,67.0,30.26,SSW,198,6.0,-999.0,100,-99.99,,,-99.99,,2013-04-07 17:23:00,
2013-04-07 13:33:00,67.0,33.0,30.26,SW,226,7.0,-999.0,28,-99.99,,,-99.99,,2013-04-07 17:33:00,
2013-04-07 13:43:00,67.0,33.0,30.26,SW,226,7.0,-999.0,28,-99.99,,,-99.99,,2013-04-07 17:43:00,
2013-04-07 13:53:00,67.0,29.0,30.25,SW,227,6.0,-999.0,24,-99.99,,,-99.99,,2013-04-07 17:53:00,
2013-04-07 14:23:00,67.0,67.0,30.24,SW,227,7.0,-999.0,100,-99.99,,,-99.99,,2013-04-07 18:23:00,
2013-04-07 14:33:00,65.0,65.0,30.24,SSW,207,7.0,-999.0,100,-99.99,,,-99.99,,2013-04-07 18:33:00,
2013-04-07 14:43:00,65.0,65.0,30.24,SSW,207,7.0,-999.0,100,-99.99,,,-99.99,,2013-04-07 18:43:00,
2013-04-07 14:52:00,67.0,19.0,30.23,West,261,7.0,-999.0,16,-99.99,,,-99.99,,2013-04-07 18:52:00,
2013-04-07 15:03:00,66.0,66.0,30.23,WSW,254,7.0,-999.0,100,-99.99,,,-99.99,,2013-04-07 19:03:00,
2013-04-07 15:13:00,66.0,66.0,30.23,WSW,254,7.0,-999.0,100,-99.99,,,-99.99,,2013-04-07 19:13:00,
2013-04-07 15:23:00,65.0,65.0,30.22,SW,220,8.0,-999.0,100,-99.99,,,-99.99,,2013-04-07 19:23:00,
2013-04-07 15:33:00,65.0,65.0,30.22,West,261,8.0,-999.0,100,-99.99,,,-99.99,,2013-04-07 19:33:00,
2013-04-07 15:43:00,65.0,65.0,30.22,West,261,8.0,-999.0,100,-99.99,,,-99.99,,2013-04-07 19:43:00,
2013-04-07 16:03:00,63.0,63.0,30.21,SW,234,8.0,-999.0,100,-99.99,,,-99.99,,2013-04-07 20:03:00,
2013-04-07 16:13:00,63.0,63.0,30.21,SW,234,8.0,-999.0,100,-99.99,,,-99.99,,2013-04-07 20:13:00,
2013-04-07 16:23:00,63.0,63.0,30.20,West,267,9.0,-999.0,100,-99.99,,,-99.99,,2013-04-07 20:23:00,
2013-04-07 16:33:00,64.0,64.0,30.19,West,262,6.0,-999.0,100,-99.99,,,-99.99,,2013-04-07 20:33:00,
2013-04-07 16:52:00,64.0,64.0,30.19,WNW,285,7.0,-999.0,100,-99.99,,,-99.99,,2013-04-07 20:52:00,
2013-04-07 17:04:00,64.0,64.0,30.19,West,273,7.0,-999.0,100,-99.99,,,-99.99,,2013-04-07 21:04:00,
2013-04-07 17:14:00,64.0,64.0,30.19,West,273,7.0,-999.0,100,-99.99,,,-99.99,,2013-04-07 21:14:00,
2013-04-07 17:23:00,64.0,64.0,30.19,WSW,245,5.0,-999.0,100,-99.99,,,-99.99,,2013-04-07 21:23:00,
2013-04-07 17:34:00,64.0,64.0,30.19,West,265,7.0,-999.0,100,-99.99,,,-99.99,,2013-04-07 21:34:00,
2013-04-07 17:45:00,64.0,64.0,30.19,West,265,7.0,-999.0,100,-99.99,,,-99.99,,2013-04-07 21:45:00,
2013-04-07 17:53:00,64.0,64.0,30.19,WNW,292,7.0,-999.0,100,-99.99,,,-99.99,,2013-04-07 21:53:00,
2013-04-07 18:05:00,64.0,64.0,30.18,NW,311,5.0,-999.0,100,-99.99,,,-99.99,,2013-04-07 22:05:00,
2013-04-07 18:15:00,64.0,64.0,30.18,NW,311,5.0,-999.0,100,-99.99,,,-99.99,,2013-04-07 22:15:00,
2013-04-07 18:24:00,64.0,64.0,30.18,WNW,282,7.0,-999.0,100,-99.99,,,-99.99,,2013-04-07 22:24:00,
2013-04-07 18:34:00,64.0,64.0,30.18,WSW,245,6.0,-999.0,100,-99.99,,,-99.99,,2013-04-07 22:34:00,
2013-04-07 18:43:00,64.0,64.0,30.18,WSW,245,6.0,-999.0,100,-99.99,,,-99.99,,2013-04-07 22:43:00,
2013-04-07 18:53:00,64.0,64.0,30.18,West,281,7.0,-999.0,100,-99.99,,,-99.99,,2013-04-07 22:53:00,
2013-04-07 19:04:00,64.0,64.0,30.18,NW,313,4.0,-999.0,100,-99.99,,,-99.99,,2013-04-07 23:04:00,
2013-04-07 19:13:00,64.0,64.0,30.18,NW,313,4.0,-999.0,100,-99.99,,,-99.99,,2013-04-07 23:13:00,
2013-04-07 19:23:00,64.0,64.0,30.18,West,269,4.0,-999.0,100,-99.99,,,-99.99,,2013-04-07 23:23:00,
2013-04-07 19:33:00,64.0,64.0,30.17,West,262,4.0,-999.0,100,-99.99,,,-99.99,,2013-04-07 23:33:00,
2013-04-07 19:43:00,64.0,64.0,30.17,West,262,4.0,-999.0,100,-99.99,,,-99.99,,2013-04-07 23:43:00,
2013-04-07 19:52:00,63.0,63.0,30.17,NNW,339,4.0,-999.0,100,-99.99,,,-99.99,,2013-04-07 23:52:00,
2013-04-07 20:03:00,63.0,63.0,30.17,West,281,5.0,-999.0,100,-99.99,,,-99.99,,2013-04-08 00:03:00,
2013-04-07 20:13:00,63.0,63.0,30.17,West,281,5.0,-999.0,100,-99.99,,,-99.99,,2013-04-08 00:13:00,
2013-04-07 20:23:00,63.0,63.0,30.17,WNW,287,6.0,-999.0,100,-99.99,,,-99.99,,2013-04-08 00:23:00,
2013-04-07 20:33:00,63.0,63.0,30.17,WNW,288,6.0,-999.0,100,-99.99,,,-99.99,,2013-04-08 00:33:00,
2013-04-07 20:42:00,63.0,63.0,30.17,WNW,288,6.0,-999.0,100,-99.99,,,-99.99,,2013-04-08 00:42:00,
2013-04-07 20:52:00,63.0,63.0,30.18,NW,317,6.0,-999.0,100,-99.99,,,-99.99,,2013-04-08 00:52:00,
2013-04-07 21:03:00,63.0,63.0,30.18,WNW,286,6.0,-999.0,100,-99.99,,,-99.99,,2013-04-08 01:03:00,
2013-04-07 21:13:00,63.0,63.0,30.18,WNW,286,6.0,-999.0,100,-99.99,,,-99.99,,2013-04-08 01:13:00,
2013-04-07 21:23:00,63.0,63.0,30.18,WNW,296,5.0,-999.0,100,-99.99,,,-99.99,,2013-04-08 01:23:00,
2013-04-07 21:34:00,63.0,63.0,30.19,WSW,257,6.0,-999.0,100,-99.99,,,-99.99,,2013-04-08 01:34:00,
2013-04-07 21:44:00,63.0,63.0,30.19,WSW,257,6.0,-999.0,100,-99.99,,,-99.99,,2013-04-08 01:44:00,
2013-04-07 21:54:00,63.0,63.0,30.19,NW,322,5.0,-999.0,100,-99.99,,,-99.99,,2013-04-08 01:54:00,
2013-04-07 22:03:00,63.0,63.0,30.19,WNW,298,4.0,-999.0,100,-99.99,,,-99.99,,2013-04-08 02:03:00,
2013-04-07 22:12:00,63.0,63.0,30.19,WNW,298,4.0,-999.0,100,-99.99,,,-99.99,,2013-04-08 02:12:00,
2013-04-07 22:22:00,63.0,63.0,30.19,WSW,252,5.0,-999.0,100,-99.99,,,-99.99,,2013-04-08 02:22:00,
2013-04-07 22:33:00,63.0,63.0,30.19,WNW,287,4.0,-999.0,100,-99.99,,,-99.99,,2013-04-08 02:33:00,
2013-04-07 22:48:00,63.0,63.0,30.19,WNW,287,4.0,-999.0,100,-99.99,,,-99.99,,2013-04-08 02:48:00,
2013-04-07 22:53:00,63.0,63.0,30.20,West,273,3.0,-999.0,100,-99.99,,,-99.99,,2013-04-08 02:53:00,
2013-04-07 23:08:00,63.0,63.0,30.20,West,275,3.0,-999.0,100,-99.99,,,-99.99,,2013-04-08 03:08:00,
2013-04-07 23:16:00,63.0,63.0,30.20,West,275,3.0,-999.0,100,-99.99,,,-99.99,,2013-04-08 03:16:00,
2013-04-07 23:25:00,63.0,63.0,30.19,West,267,3.0,-999.0,100,-99.99,,,-99.99,,2013-04-08 03:25:00,
2013-04-07 23:36:00,63.0,63.0,30.20,West,276,3.0,-999.0,100,-99.99,,,-99.99,,2013-04-08 03:36:00,
2013-04-07 23:48:00,63.0,63.0,30.20,West,276,3.0,-999.0,100,-99.99,,,-99.99,,2013-04-08 03:48:00,
2013-04-07 23:53:00,63.0,63.0,30.19,West,276,3.0,-999.0,100,-99.99,,,-99.99,,2013-04-08 03:53:00,